Miscellaneous Local Product
Issued by NWS Hastings, NE

Home | Current Version | Previous Version | Graphics & Text | Print | Product List | Glossary On
Versions: 1 2 3 4 5 6 7 8 9 10 11 12 13 14 15 16 17 18 19 20 21 22 23 24 25 26 27 28 29 30 31 32 33 34 35 36 37 38 39 40 41 42 43 44 45 46 47 48 49 50
000
AXUS43 KGID 301902
MISGRI

GID CWA HOURLY WEATHER ROUNDUP
NATIONAL WEATHER SERVICE HASTINGS NE
200 PM CDT SAT APR 30 2016

NOTE: "FAIR" INDICATES FEW OR NO CLOUDS BELOW 12,000 FEET WITH NO
SIGNIFICANT WEATHER AND/OR OBSTRUCTIONS TO VISIBILITY.

...SOUTH CENTRAL NEBRASKA...

CITY           SKY/WX    TMP DP  RH WIND       PRES   REMARKS
GRAND ISLAND   LGT RAIN  44  43  96 N13       29.75S FOG
HASTINGS       LGT RAIN  45  42  89 N8        29.74R FOG
KEARNEY        CLOUDY    43  41  93 N13       29.78R
ORD            LGT RAIN  42  40  92 NE16      29.79R FOG
YORK           LGT RAIN  46  46 100 NE9       29.73R VSB 1
AURORA         CLOUDY    46  46  99 N12       29.73F FOG
LEXINGTON      LGT RAIN  41  37  87 N16       29.80R
HOLDREGE       CLOUDY    43  41  93 N8        29.77R FOG
HEBRON         CLOUDY    50  47  87 NW3       29.72S

...NEBRASKA PANHANDLE...

CITY           SKY/WX    TMP DP  RH WIND       PRES   REMARKS
CHADRON        LGT RAIN  42  38  85 N18G25    30.02S
ALLIANCE       LGT SNOW  34  32  92 N20       29.95R VSB 3/4 WCI  23
SCOTTSBLUFF    LGT RAIN  38  35  89 N20G29    29.99R WCI  28
SIDNEY         SNOW      34  32  92 N22       29.92R VSB 1/2 WCI  22

...WESTERN AND NORTH CENTRAL NEBRASKA...

CITY           SKY/WX    TMP DP  RH WIND       PRES   REMARKS
VALENTINE      LGT RAIN  41  37  86 NE25G35   29.92S
AINSWORTH      LGT RAIN  35  35  98 N16G23    29.89R WCI  25
ONEILL         CLOUDY    41  39  93 NE24      29.84S FOG
BROKEN BOW     LGT RAIN  38  36  92 N17       29.81R FOG     WCI  28
IMPERIAL       CLOUDY    36  33  89 N21       29.85S WCI  25
NORTH PLATTE   FLURRIES  36  33  89 N22G28    29.83S WCI  25
MCCOOK         CLOUDY    42  36  79 N15       29.81R

...EASTERN NEBRASKA...

CITY           SKY/WX    TMP DP  RH WIND       PRES   REMARKS
NORFOLK        CLOUDY    44  41  89 NE13G21   29.77R
SO SIOUX CITY  CLOUDY    48  42  80 E21G29    29.80S
TEKAMAH        LGT RAIN  47  45  93 NE13      29.76S FOG
COLUMBUS       CLOUDY    46  39  76 NE13      29.75S
ALBION         CLOUDY    44  42  94 NE14G24   29.77S FOG
OMAHA EPPLEY   DRIZZLE   49  47  93 E9        29.74R FOG
MILLARD        CLOUDY    49  47  93 E8        29.72S FOG
LINCOLN        CLOUDY    51  48  89 NE9       29.73R FOG
NEBRASKA CITY  DRIZZLE   52  52 100 NE7       29.70R
BEATRICE       CLOUDY    51  49  92 CALM      29.71R FOG
FALLS CITY     CLOUDY    58  53  84 W12       29.70R

...NORTHERN KANSAS...

CITY           SKY/WX    TMP DP  RH WIND       PRES   REMARKS
GOODLAND       CLOUDY    39  34  82 NW17      29.83S WCI  30
HILL CITY      CLOUDY    47  38  71 NW10      29.81R
NORTON         CLOUDY    45  37  76 NW13      29.78
PHILLIPSBURG   CLOUDY    46  43  87 W8G16     29.79R
SMITH CENTER   CLOUDY    48  45  87 NW9       29.77S
BELOIT         CLOUDY    52  43  71 W12G17    29.75S
HAYS           CLOUDY    50  36  57 NW16      29.80S
RUSSELL        CLOUDY    51  42  71 W15       29.78R
CONCORDIA      CLOUDY    53  46  77 W14       29.74R
SALINA         CLOUDY    58  47  66 W17       29.76R
TOPEKA         PTSUNNY   61  49  64 W12       29.73F



USA.gov is the U.S. government's official web portal to all federal, state and local government web resources and services.